Location: Bacharowice
(49.9333°N, 19.5833°E)
Time: 08:29:19
(UTC+00:00)

Cosmos 2344 - Pass Details

Date: 30 September 2021
Orbit: 1235 x 3007 km, 63.3° (Epoch: 19 October)

Event Time Altitude Azimuth Distance (km) Brightness Sun altitude
Rises 18:19:07 0° 296° (WNW) 4,217 7.9 -19.4°
Reaches altitude 10° 18:22:02 10° 305° (NW) 3,322 6.9 -19.8°
Maximum altitude 18:29:14 35° 11° (N) 2,215 4.9 -20.9°
Enters shadow 18:36:05 16° 68° (ENE) 3,551 5.5 -22.0°
